Regional Weather Roundup
Issued by NWS Cleveland, OH

Home | Current Version | Previous Version | Graphics & Text | Print | Product List | Glossary On
Versions: 1 2 3 4 5 6 7 8 9 10 11 12 13 14 15 16 17 18 19 20 21 22 23 24 25 26 27 28 29 30 31 32 33 34 35 36 37 38 39 40 41 42 43 44 45 46 47 48 49 50
000
ASUS41 KCLE 181900
RWRCLE
OHIO REGIONAL WEATHER ROUNDUP
NATIONAL WEATHER SERVICE WILMINGTON, OH
300 PM EDT SAT APR 18 2015

NOTE: "FAIR" INDICATES FEW OR NO CLOUDS BELOW 12,000 FEET WITH NO
SIGNIFICANT WEATHER AND/OR OBSTRUCTIONS TO VISIBILITY.

OHZ001>008-015>018-024>027-034-035-043-044-182000-
   NORTHWEST OHIO

CITY           SKY/WX    TMP DP  RH WIND       PRES   REMARKS
DEFIANCE       CLOUDY    78  47  33 NE5       30.03F
FINDLAY        PTSUNNY   76  47  35 E9        30.03S
TOLEDO EXPRESS MOSUNNY   73  44  35 E18       30.06R
TOLEDO EXEC    SUNNY     66  39  37 E17G25    30.10R
LIMA           CLOUDY    76  47  35 N3        30.04F
$$

OHZ009>014-019>023-028>033-038-089-182000-
   NORTHEAST OHIO

CITY           SKY/WX    TMP DP  RH WIND       PRES   REMARKS
CLE-HOPKINS    MOSUNNY   67  45  45 N14       30.10R
CLE-LAKEFRONT  SUNNY     58  46  64 N8        30.08R
CUY CO. ARPT   MOSUNNY   68  46  45 N10G18    30.08S
LORAIN-ELYRIA  SUNNY     67  46  47 NE14      30.08R
ASHTABULA      SUNNY     68  43  40 N10       30.07F
AKRON-CANTON   MOSUNNY   75  44  33 N12       30.05R
WOOSTER        NOT AVBL
MANSFIELD      PTSUNNY   74  45  35 N12       30.06R
YOUNGSTOWN     PTSUNNY   74  43  32 N6G18     30.04F
$$

OHZ042-051>053-060>062-070>072-077>081-182000-
  SOUTHWEST OHIO

CITY           SKY/WX    TMP DP  RH WIND       PRES   REMARKS
CINC-COVINGTON PTSUNNY   77  46  33 NE10      30.02F
CINC-LUNKEN    PTSUNNY   77  47  34 MISG      30.01F
HAMILTON       PTSUNNY   78  50  37 MISG      30.03F
DAYTON         NOT AVBL
WRIGHT-PAT AFB CLOUDY    77  46  33 VRB3      30.02F
DAYTON GENERAL PTSUNNY   76  48  37 E10       30.02F
WILMINGTON     PTSUNNY   73  45  36 E8        30.02F
$$

OHZ036-037-039>041-045>050-054>059-063>069-073>076-082>088-182000-
  CENTRAL AND SOUTHEAST OHIO

CITY           SKY/WX    TMP DP  RH WIND       PRES   REMARKS
COLUMBUS       CLOUDY    76  46  34 VRB6      30.03F
OSU AIRPORT    CLOUDY    77  45  32 NE6       30.03F
BOLTON FIELD   SUNNY     75  48  38 N5        30.04F
RICKENBACK AFB NOT AVBL
NEWARK         PTSUNNY   77  41  27 NE6       30.03S
MARION         PTSUNNY   76  44  32 N7        30.05S
LANCASTER      CLOUDY    76  45  33 E5        30.04F
ZANESVILLE     PTSUNNY   74  39  28 SE5       30.03S
NEW PHILLY     MOSUNNY   79  43  27 NW7       30.03S
$$



USA.gov is the U.S. government's official web portal to all federal, state and local government web resources and services.